{"data":{"norad_id":66584,"epoch":"2026-09-20T09:46:56.403264Z","epoch_age_seconds":94900,"freshness":"FRESH","line1":"1 66584U 25268AD  26263.40759726  .00012487  00000+0  46248-3 0  9999","line2":"2 66584  43.0007 327.0209 0001139 280.1664  79.9059 15.27583277 47747","mean_motion":15.27583277,"eccentricity":0.0001139,"inclination_deg":43.0007,"raan_deg":327.0209,"arg_perigee_deg":280.1664,"mean_anomaly_deg":79.9059,"bstar":0.00046248,"rev_number":4774,"period_min":94.266546490873,"perigee_km":482.25779556161,"apogee_km":483.820771519,"semimajor_km":6861.1762835403,"source":"CELESTRAK","updated_at":"2026-09-21T09:00:35.975200Z"}}